Fallon NAS, NV

10:15 AM PDT on July 28, 2017 (GMT -0700)
Fallon Naval Air Station

Weather History for KNFL - October, 2011

Change the Weather History Date:

Saturday, October 15, 2011

  Actual Average Record
Temperature  
Mean Temperature 64 °F -  
Max Temperature 84 °F 67 °F 86 °F (1961)
Min Temperature 46 °F 31 °F 19 °F (1966)
Degree Days  
Heating Degree Days 1    
Growing Degree Days 14 (Base 50)    
Moisture  
Dew Point 34 °F    
Average Humidity 38    
Maximum Humidity 68    
Minimum Humidity 12    
Precipitation  
Precipitation 0.00 in - - ()
Sea Level Pressure  
Sea Level Pressure 29.92 in    
Wind  
Wind Speed 3 mph (SE)    
Max Wind Speed 7 mph    
Max Gust Speed -    
Visibility 10 miles    
Events      
Averages and records for this station are not official NWS values.
T = Trace of Precipitation, MM = Missing Value Source: NWS Daily Summary

Daily Weather History Graph

Daily Weather History Graph

Search for Another Location

Airport or City:

Trip Planner

Search our weather history database for the weather conditions in past years. The results will help you decide how hot, cold, wet, or windy it might be!

Date:

Astronomy

Oct. 15, 2011 Rise Set
Actual Time 7:04 AM PDT 6:16 PM PDT
Civil Twilight 6:37 AM PDT 6:43 PM PDT
Nautical Twilight 6:06 AM PDT 7:14 PM PDT
Astronomical Twilight 5:35 AM PDT 7:45 PM PDT
Moon 8:17 PM PDT (10/15) 10:31 AM PDT (10/15)
Length of Visible Light 12h 05m
Length of Day
11h 11m
Waning Gibbous, 88% of the Moon is Illuminated
Oct 15
Waning Gibbous
Oct 19
Last Quarter
Oct 26
New
Nov 2
First Quarter
Nov 10
Full

Hourly Weather History & Observations

Time (PDT) Temp. Dew Point Humidity Pressure Visibility Wind Dir Wind Speed Gust Speed Precip Events Conditions
12:56 AM 55.9 °F 41.0 °F 57% 29.90 in 10.0 mi South 4.6 mph - N/A   Clear
1:56 AM 55.0 °F 39.0 °F 55% 29.91 in 10.0 mi South 3.5 mph - N/A   Clear
2:56 AM 54.0 °F 37.0 °F 53% 29.91 in 10.0 mi SSE 6.9 mph - N/A   Clear
3:56 AM 55.0 °F 36.0 °F 49% 29.90 in 10.0 mi SSE 6.9 mph - N/A   Clear
4:56 AM 54.0 °F 37.0 °F 53% 29.91 in 10.0 mi Calm Calm - N/A   Clear
5:56 AM 52.0 °F 37.0 °F 57% 29.92 in 10.0 mi Calm Calm - N/A   Clear
6:56 AM 46.9 °F 37.0 °F 68% 29.93 in 10.0 mi Calm Calm - N/A   Clear
7:56 AM 52.0 °F 39.9 °F 63% 29.94 in 10.0 mi East 4.6 mph - N/A   Clear
8:56 AM 60.1 °F 39.0 °F 46% 29.95 in 10.0 mi Calm Calm - N/A   Clear
9:03 AM 60.8 °F 39.2 °F 45% 30.04 in 10.0 mi Calm Calm - N/A   Mostly Cloudy
9:56 AM 68.0 °F 36.0 °F 31% 29.96 in 10.0 mi Calm Calm - N/A   Mostly Cloudy
10:56 AM 72.0 °F 36.0 °F 27% 29.95 in 10.0 mi WNW 3.5 mph - N/A   Mostly Cloudy
11:56 AM 73.9 °F 35.1 °F 24% 29.95 in 10.0 mi West 3.5 mph - N/A   Mostly Cloudy
12:56 PM 77.0 °F 30.9 °F 19% 29.93 in 10.0 mi Calm Calm - N/A   Mostly Cloudy
1:56 PM 82.0 °F 28.0 °F 14% 29.91 in 10.0 mi Variable 3.5 mph - N/A   Mostly Cloudy
2:56 PM 82.9 °F 25.0 °F 12% 29.89 in 10.0 mi Calm Calm - N/A   Mostly Cloudy
3:56 PM 82.9 °F 26.1 °F 13% 29.88 in 10.0 mi Variable 3.5 mph - N/A   Mostly Cloudy
4:56 PM 80.1 °F 27.0 °F 14% 29.87 in 10.0 mi ENE 4.6 mph - N/A   Mostly Cloudy
5:56 PM 77.0 °F 28.9 °F 17% 29.87 in 10.0 mi ENE 5.8 mph - N/A   Mostly Cloudy
6:56 PM 68.0 °F 33.1 °F 27% 29.88 in 10.0 mi Calm Calm - N/A   Clear
7:56 PM 63.0 °F 34.0 °F 34% 29.89 in 10.0 mi North 4.6 mph - N/A   Clear
8:56 PM 61.0 °F 34.0 °F 36% 29.91 in 10.0 mi Calm Calm - N/A   Clear
9:56 PM 55.9 °F 35.1 °F 45% 29.92 in 10.0 mi South 4.6 mph - N/A   Clear
10:56 PM 52.0 °F 35.1 °F 53% 29.93 in 10.0 mi South 4.6 mph - N/A   Clear
11:56 PM 53.1 °F 34.0 °F 48% 29.94 in 10.0 mi Calm Calm - N/A   Clear